| time (UTC) | temp F | wind direction | speed MPH | gust MPH | rain 1hr in | rain 24hr in | rain mn in | humidity % | barometer mb |
| 20260507201524 | 64 | 250 | 1.0 | 6.0 | 0.00 | 0.30 | 0.27 | 34 | 1005.9 |
| 20260507201505 | 63 | 297 | 0.0 | 6.0 | 0.00 | 0.30 | 0.27 | 34 | 1004.9 |
| 20260507201003 | 64 | 268 | 1.0 | 5.0 | 0.00 | 0.30 | 0.27 | 33 | 1005.9 |
| 20260507200503 | 64 | 302 | 1.0 | 5.0 | 0.00 | 0.30 | 0.27 | 33 | 1005.9 |
| 20260507200010 | 63 | 288 | 0.0 | 4.0 | 0.00 | 0.30 | 0.27 | 35 | 1004.9 |
| 20260507200003 | 64 | 319 | 1.0 | 4.0 | 0.00 | 0.30 | 0.27 | 35 | 1005.8 |
| 20260507195503 | 64 | 311 | 1.0 | 5.0 | 0.00 | 0.30 | 0.27 | 34 | 1005.9 |
| 20260507195003 | 64 | 294 | 1.0 | 5.0 | 0.00 | 0.30 | 0.27 | 35 | 1006.1 |
| 20260507194516 | 63 | 306 | 0.0 | 6.0 | 0.00 | 0.30 | 0.27 | 37 | 1005.0 |
| 20260507194503 | 64 | 335 | 1.0 | 7.0 | 0.00 | 0.30 | 0.27 | 37 | 1006.0 |
| 20260507194003 | 64 | 325 | 1.0 | 7.0 | 0.00 | 0.30 | 0.27 | 34 | 1006.1 |
| 20260507193524 | 64 | 256 | 0.0 | 5.0 | 0.00 | 0.30 | 0.27 | 34 | 1006.0 |
| 20260507193015 | 63 | 241 | 1.0 | 4.0 | 0.00 | 0.30 | 0.27 | 36 | 1005.2 |
| 20260507193003 | 64 | 275 | 0.0 | 3.0 | 0.00 | 0.30 | 0.27 | 36 | 1006.1 |
| 20260507192503 | 64 | 283 | 0.0 | 2.0 | 0.00 | 0.30 | 0.27 | 35 | 1006.1 |
| 20260507192003 | 64 | 322 | 0.0 | 4.0 | 0.00 | 0.30 | 0.27 | 38 | 1006.3 |
| 20260507191520 | 63 | 153 | 0.0 | 4.0 | 0.00 | 0.30 | 0.27 | 38 | 1005.3 |
| 20260507191503 | 63 | 303 | 1.0 | 4.0 | 0.00 | 0.30 | 0.27 | 35 | 1006.2 |
| 20260507191003 | 63 | 272 | 0.0 | 3.0 | 0.00 | 0.30 | 0.27 | 34 | 1006.3 |
| 20260507190503 | 63 | 252 | 0.0 | 4.0 | 0.00 | 0.30 | 0.27 | 38 | 1006.3 |
| 20260507190012 | 63 | 249 | 0.0 | 4.0 | 0.00 | 0.30 | 0.27 | 36 | 1005.4 |
| 20260507190004 | 63 | 261 | 1.0 | 4.0 | 0.00 | 0.30 | 0.27 | 36 | 1006.3 |
| 20260507185503 | 63 | 277 | 1.0 | 4.0 | 0.00 | 0.30 | 0.27 | 34 | 1006.5 |
| 20260507185024 | 63 | 267 | 1.0 | 6.0 | 0.00 | 0.30 | 0.27 | 37 | 1006.5 |
| 20260507184511 | 63 | 264 | 1.0 | 6.0 | 0.00 | 0.30 | 0.27 | 36 | 1005.6 |
| 20260507184503 | 63 | 257 | 1.0 | 6.0 | 0.00 | 0.30 | 0.27 | 36 | 1006.6 |
| 20260507184024 | 63 | 250 | 0.0 | 4.0 | 0.00 | 0.30 | 0.27 | 36 | 1006.6 |
| 20260507183503 | 63 | 283 | 1.0 | 11.0 | 0.00 | 0.30 | 0.27 | 38 | 1006.7 |
| 20260507183031 | 63 | 246 | 0.0 | 11.0 | 0.00 | 0.30 | 0.27 | 38 | 1005.8 |
| 20260507183003 | 63 | 280 | 1.0 | 11.0 | 0.00 | 0.30 | 0.27 | 38 | 1006.8 |
| 20260507182503 | 63 | 238 | 1.0 | 5.0 | 0.00 | 0.30 | 0.27 | 38 | 1006.7 |
| 20260507182003 | 63 | 261 | 1.0 | 8.0 | 0.00 | 0.30 | 0.27 | 39 | 1006.6 |
| 20260507181514 | 63 | 26 | 1.0 | 8.0 | 0.00 | 0.30 | 0.27 | 38 | 1005.9 |
| 20260507181503 | 63 | 294 | 0.0 | 8.0 | 0.00 | 0.30 | 0.27 | 38 | 1006.8 |
| 20260507181003 | 64 | 287 | 0.0 | 5.0 | 0.00 | 0.30 | 0.27 | 42 | 1006.9 |
| 20260507180503 | 64 | 271 | 1.0 | 5.0 | 0.00 | 0.30 | 0.27 | 41 | 1006.9 |
| 20260507180008 | 63 | 285 | 0.0 | 6.0 | 0.00 | 0.30 | 0.27 | 44 | 1005.9 |
| 20260507180003 | 64 | 255 | 1.0 | 6.0 | 0.00 | 0.30 | 0.27 | 44 | 1006.9 |
| 20260507175503 | 63 | 247 | 1.0 | 6.0 | 0.00 | 0.30 | 0.27 | 43 | 1007.0 |
| 20260507175003 | 63 | 252 | 1.0 | 4.0 | 0.00 | 0.30 | 0.27 | 42 | 1006.9 |
| 20260507174521 | 63 | 281 | 0.0 | 4.0 | 0.00 | 0.30 | 0.27 | 45 | 1006.0 |
| 20260507174503 | 63 | 248 | 1.0 | 4.0 | 0.00 | 0.30 | 0.27 | 45 | 1006.9 |
| 20260507174024 | 64 | 240 | 1.0 | 4.0 | 0.00 | 0.30 | 0.27 | 41 | 1006.9 |
| 20260507173503 | 63 | 242 | 1.0 | 4.0 | 0.00 | 0.30 | 0.27 | 40 | 1006.9 |
| 20260507173017 | 62 | 313 | 0.0 | 7.0 | 0.00 | 0.30 | 0.27 | 42 | 1006.0 |
| 20260507173003 | 63 | 277 | 1.0 | 7.0 | 0.00 | 0.30 | 0.27 | 41 | 1006.9 |
| 20260507172503 | 63 | 274 | 1.0 | 7.0 | 0.00 | 0.30 | 0.27 | 43 | 1007.1 |
| 20260507172003 | 63 | 248 | 1.0 | 4.0 | 0.00 | 0.30 | 0.27 | 42 | 1007.1 |
| 20260507171508 | 62 | 242 | 1.0 | 7.0 | 0.00 | 0.30 | 0.27 | 42 | 1006.3 |
| 20260507171503 | 62 | 239 | 2.0 | 7.0 | 0.00 | 0.30 | 0.27 | 42 | 1007.2 |
| 20260507171003 | 62 | 231 | 2.0 | 7.0 | 0.00 | 0.30 | 0.27 | 44 | 1007.2 |
| 20260507170503 | 63 | 220 | 1.0 | 7.0 | 0.00 | 0.30 | 0.27 | 44 | 1007.2 |
| 20260507170018 | 61 | 212 | 0.0 | 7.0 | 0.00 | 0.30 | 0.27 | 42 | 1006.3 |
| 20260507170003 | 61 | 230 | 2.0 | 7.0 | 0.00 | 0.30 | 0.27 | 42 | 1007.3 |
| 20260507165524 | 62 | 240 | 1.0 | 6.0 | 0.00 | 0.30 | 0.27 | 44 | 1007.4 |
| 20260507165003 | 62 | 240 | 1.0 | 6.0 | 0.00 | 0.30 | 0.27 | 47 | 1007.3 |
| 20260507164514 | 61 | 238 | 0.0 | 5.0 | 0.00 | 0.30 | 0.27 | 45 | 1006.4 |
| 20260507164503 | 62 | 246 | 0.0 | 5.0 | 0.00 | 0.30 | 0.27 | 45 | 1007.4 |
| 20260507164003 | 63 | 248 | 0.0 | 3.0 | 0.00 | 0.30 | 0.27 | 51 | 1007.4 |
| 20260507163503 | 62 | 247 | 1.0 | 5.0 | 0.00 | 0.30 | 0.27 | 50 | 1007.4 |
| 20260507163005 | 61 | 281 | 0.0 | 5.0 | 0.00 | 0.30 | 0.27 | 52 | 1006.5 |
| 20260507163003 | 62 | 246 | 1.0 | 5.0 | 0.00 | 0.30 | 0.27 | 52 | 1007.4 |
| 20260507162524 | 62 | 223 | 0.0 | 5.0 | 0.00 | 0.30 | 0.27 | 49 | 1007.6 |
| 20260507162003 | 62 | 220 | 0.0 | 5.0 | 0.00 | 0.30 | 0.27 | 57 | 1007.7 |
| 20260507161513 | 60 | 339 | 0.0 | 4.0 | 0.00 | 0.30 | 0.27 | 56 | 1006.8 |
| 20260507161503 | 61 | 247 | 0.0 | 4.0 | 0.00 | 0.30 | 0.27 | 56 | 1007.7 |
| 20260507161003 | 61 | 267 | 0.0 | 4.0 | 0.00 | 0.30 | 0.27 | 55 | 1007.7 |
| 20260507160503 | 61 | 229 | 1.0 | 6.0 | 0.00 | 0.30 | 0.27 | 54 | 1007.8 |
| 20260507160009 | 60 | 182 | 1.0 | 6.0 | 0.00 | 0.30 | 0.27 | 54 | 1006.8 |
| 20260507160003 | 61 | 236 | 1.0 | 6.0 | 0.00 | 0.30 | 0.27 | 54 | 1007.8 |
| 20260507155503 | 60 | 256 | 1.0 | 5.0 | 0.00 | 0.30 | 0.27 | 57 | 1008.0 |
| 20260507155003 | 61 | 301 | 0.0 | 3.0 | 0.00 | 0.30 | 0.27 | 56 | 1007.9 |
| 20260507154520 | 59 | 311 | 0.0 | 4.0 | 0.00 | 0.30 | 0.27 | 55 | 1007.0 |
| 20260507154503 | 60 | 262 | 0.0 | 4.0 | 0.00 | 0.30 | 0.27 | 55 | 1008.0 |
| 20260507154003 | 59 | 253 | 1.0 | 4.0 | 0.00 | 0.30 | 0.27 | 64 | 1008.1 |
| 20260507153504 | 60 | 257 | 0.0 | 5.0 | 0.00 | 0.30 | 0.27 | 60 | 1008.1 |
| 20260507153011 | 60 | 247 | 0.0 | 4.0 | 0.00 | 0.30 | 0.27 | 62 | 1007.2 |
| 20260507153003 | 60 | 249 | 0.0 | 5.0 | 0.00 | 0.30 | 0.27 | 62 | 1008.1 |
| 20260507152503 | 59 | 297 | 0.0 | 5.0 | 0.00 | 0.30 | 0.27 | 61 | 1008.2 |
| 20260507152024 | 59 | 357 | 0.0 | 5.0 | 0.00 | 0.30 | 0.27 | 67 | 1008.2 |
| 20260507151517 | 57 | 275 | 0.0 | 3.0 | 0.00 | 0.30 | 0.27 | 72 | 1007.3 |
| 20260507151503 | 58 | 275 | 0.0 | 3.0 | 0.00 | 0.30 | 0.27 | 71 | 1008.2 |
| 20260507151024 | 58 | 0 | 0.0 | 1.0 | 0.00 | 0.30 | 0.27 | 71 | 1008.2 |
| 20260507150503 | 57 | 0 | 0.0 | 1.0 | 0.00 | 0.30 | 0.27 | 71 | 1008.2 |
| 20260507150014 | 57 | 299 | 0.0 | 1.0 | 0.00 | 0.30 | 0.27 | 69 | 1007.3 |
| 20260507150003 | 57 | 0 | 0.0 | 0.0 | 0.00 | 0.30 | 0.27 | 69 | 1008.3 |
| 20260507145503 | 57 | 326 | 0.0 | 4.0 | 0.00 | 0.30 | 0.27 | 68 | 1008.4 |
| 20260507145003 | 57 | 309 | 0.0 | 4.0 | 0.00 | 0.30 | 0.27 | 67 | 1008.4 |
| 20260507144508 | 57 | 240 | 0.0 | 3.0 | 0.00 | 0.30 | 0.27 | 72 | 1007.6 |
| 20260507144503 | 58 | 244 | 0.0 | 3.0 | 0.00 | 0.30 | 0.27 | 72 | 1008.5 |
| 20260507144003 | 58 | 282 | 0.0 | 4.0 | 0.00 | 0.30 | 0.27 | 71 | 1008.4 |
| 20260507143503 | 58 | 282 | 0.0 | 4.0 | 0.00 | 0.30 | 0.27 | 70 | 1008.4 |
| 20260507143107 | 57 | 248 | 0.0 | 4.0 | 0.00 | 0.30 | 0.27 | 73 | 1007.6 |
| 20260507143003 | 57 | 0 | 0.0 | 2.0 | 0.00 | 0.30 | 0.27 | 71 | 1008.6 |
| 20260507142503 | 57 | 345 | 0.0 | 2.0 | 0.00 | 0.30 | 0.27 | 72 | 1008.7 |
| 20260507142003 | 57 | 351 | 0.0 | 3.0 | 0.00 | 0.30 | 0.27 | 77 | 1008.7 |
| 20260507141509 | 54 | 355 | 0.0 | 6.0 | 0.00 | 0.30 | 0.27 | 82 | 1007.7 |
| 20260507141503 | 55 | 351 | 0.0 | 6.0 | 0.00 | 0.30 | 0.27 | 82 | 1008.6 |
| 20260507141003 | 54 | 358 | 0.0 | 6.0 | 0.00 | 0.30 | 0.27 | 83 | 1008.7 |
| 20260507140524 | 53 | 3 | 0.0 | 3.0 | 0.00 | 0.30 | 0.27 | 87 | 1008.7 |
| 20260507140007 | 53 | 283 | 0.0 | 2.0 | 0.00 | 0.30 | 0.27 | 91 | 1007.8 |
| 20260507140003 | 53 | 263 | 0.0 | 2.0 | 0.00 | 0.30 | 0.27 | 91 | 1008.8 |
| 20260507135503 | 52 | 263 | 0.0 | 2.0 | 0.00 | 0.30 | 0.27 | 92 | 1008.8 |
| 20260507135003 | 52 | 255 | 0.0 | 3.0 | 0.00 | 0.30 | 0.27 | 93 | 1008.8 |
| 20260507134618 | 51 | 253 | 0.0 | 3.0 | 0.00 | 0.30 | 0.27 | 93 | 1007.7 |
| 20260507134524 | 51 | 261 | 0.0 | 3.0 | 0.00 | 0.30 | 0.27 | 93 | 1008.7 |
| 20260507134003 | 51 | 306 | 0.0 | 3.0 | 0.00 | 0.30 | 0.27 | 94 | 1008.7 |
| 20260507133503 | 51 | 323 | 0.0 | 2.0 | 0.00 | 0.30 | 0.27 | 94 | 1008.8 |
| 20260507133011 | 50 | 355 | 0.0 | 2.0 | 0.00 | 0.30 | 0.27 | 94 | 1007.9 |
| 20260507133003 | 50 | 342 | 0.0 | 2.0 | 0.00 | 0.30 | 0.27 | 94 | 1008.8 |
| 20260507132503 | 50 | 342 | 0.0 | 2.0 | 0.00 | 0.30 | 0.27 | 94 | 1008.8 |
| 20260507132003 | 50 | 241 | 0.0 | 4.0 | 0.00 | 0.30 | 0.27 | 95 | 1008.8 |
| 20260507131510 | 50 | 288 | 1.0 | 4.0 | 0.00 | 0.30 | 0.27 | 95 | 1007.8 |
| 20260507131503 | 50 | 242 | 0.0 | 4.0 | 0.00 | 0.30 | 0.27 | 95 | 1008.7 |
| 20260507131003 | 50 | 269 | 0.0 | 2.0 | 0.00 | 0.30 | 0.27 | 95 | 1008.8 |
| 20260507130503 | 50 | 339 | 0.0 | 6.0 | 0.00 | 0.30 | 0.27 | 95 | 1008.9 |
| 20260507130005 | 49 | 355 | 0.0 | 6.0 | 0.00 | 0.30 | 0.27 | 95 | 1008.0 |
| 20260507130003 | 50 | 329 | 0.0 | 6.0 | 0.00 | 0.30 | 0.27 | 95 | 1009.0 |
| 20260507125503 | 50 | 328 | 0.0 | 5.0 | 0.00 | 0.30 | 0.27 | 95 | 1008.9 |
| 20260507125024 | 50 | 0 | 0.0 | 1.0 | 0.00 | 0.30 | 0.27 | 95 | 1008.8 |
| 20260507124517 | 49 | 312 | 0.0 | 0.0 | 0.00 | 0.30 | 0.27 | 95 | 1007.9 |
| 20260507124503 | 49 | 0 | 0.0 | 0.0 | 0.00 | 0.30 | 0.27 | 95 | 1008.8 |
| 20260507124003 | 49 | 0 | 0.0 | 0.0 | 0.00 | 0.30 | 0.27 | 95 | 1008.8 |
| 20260507123503 | 49 | 0 | 0.0 | 0.0 | 0.00 | 0.30 | 0.27 | 94 | 1008.9 |
| 20260507123013 | 49 | 315 | 0.0 | 0.0 | 0.00 | 0.30 | 0.27 | 94 | 1008.1 |
| 20260507123003 | 49 | 0 | 0.0 | 0.0 | 0.00 | 0.30 | 0.27 | 94 | 1009.0 |
| 20260507122503 | 49 | 0 | 0.0 | 0.0 | 0.00 | 0.30 | 0.27 | 94 | 1009.2 |
| 20260507122003 | 49 | 0 | 0.0 | 0.0 | 0.00 | 0.30 | 0.27 | 94 | 1009.2 |
| 20260507121505 | 48 | 315 | 0.0 | 2.0 | 0.00 | 0.30 | 0.27 | 94 | 1008.4 |
| 20260507121503 | 49 | 315 | 0.0 | 2.0 | 0.00 | 0.30 | 0.27 | 94 | 1009.4 |
| 20260507121003 | 49 | 316 | 0.0 | 2.0 | 0.00 | 0.30 | 0.27 | 94 | 1009.1 |
| 20260507120503 | 49 | 319 | 0.0 | 1.0 | 0.00 | 0.30 | 0.27 | 94 | 1008.8 |
| 20260507120115 | 48 | 319 | 0.0 | 1.0 | 0.00 | 0.30 | 0.27 | 94 | 1007.7 |
| 20260507120003 | 48 | 0 | 0.0 | 0.0 | 0.00 | 0.30 | 0.27 | 94 | 1008.7 |
| 20260507115503 | 48 | 0 | 0.0 | 0.0 | 0.00 | 0.30 | 0.27 | 94 | 1008.8 |
| 20260507115003 | 48 | 0 | 0.0 | 0.0 | 0.00 | 0.30 | 0.27 | 94 | 1008.8 |
| 20260507114506 | 48 | 331 | 0.0 | 0.0 | 0.00 | 0.30 | 0.27 | 94 | 1007.6 |
| 20260507114503 | 48 | 0 | 0.0 | 0.0 | 0.00 | 0.30 | 0.27 | 94 | 1008.6 |
| 20260507114003 | 48 | 0 | 0.0 | 0.0 | 0.01 | 0.30 | 0.27 | 94 | 1008.8 |
| 20260507113503 | 48 | 0 | 0.0 | 0.0 | 0.02 | 0.30 | 0.27 | 94 | 1008.9 |
| 20260507113006 | 47 | 331 | 0.0 | 0.0 | 0.03 | 0.30 | 0.27 | 94 | 1007.8 |
| 20260507113003 | 48 | 0 | 0.0 | 0.0 | 0.03 | 0.30 | 0.27 | 94 | 1008.8 |
| 20260507112503 | 48 | 0 | 0.0 | 0.0 | 0.06 | 0.30 | 0.27 | 94 | 1008.8 |
| 20260507112003 | 48 | 0 | 0.0 | 0.0 | 0.07 | 0.30 | 0.27 | 94 | 1008.7 |
| 20260507111509 | 47 | 331 | 0.0 | 0.0 | 0.07 | 0.30 | 0.27 | 94 | 1007.6 |
| 20260507111503 | 48 | 0 | 0.0 | 0.0 | 0.07 | 0.30 | 0.27 | 94 | 1008.6 |
| 20260507111003 | 48 | 0 | 0.0 | 0.0 | 0.07 | 0.30 | 0.27 | 94 | 1008.7 |
| 20260507110503 | 48 | 0 | 0.0 | 0.0 | 0.08 | 0.30 | 0.27 | 94 | 1008.6 |
| 20260507110107 | 47 | 331 | 0.0 | 0.0 | 0.08 | 0.30 | 0.27 | 94 | 1007.6 |
| 20260507110003 | 48 | 0 | 0.0 | 0.0 | 0.08 | 0.30 | 0.27 | 94 | 1008.6 |
| 20260507105524 | 48 | 0 | 0.0 | 0.0 | 0.09 | 0.30 | 0.27 | 93 | 1008.2 |
| 20260507105003 | 48 | 0 | 0.0 | 0.0 | 0.09 | 0.30 | 0.27 | 93 | 1008.5 |
| 20260507104516 | 47 | 331 | 0.0 | 0.0 | 0.09 | 0.30 | 0.27 | 93 | 1007.4 |
| 20260507104503 | 48 | 0 | 0.0 | 0.0 | 0.09 | 0.30 | 0.27 | 93 | 1008.4 |
| 20260507104003 | 48 | 0 | 0.0 | 0.0 | 0.09 | 0.29 | 0.26 | 93 | 1008.4 |
| 20260507103524 | 48 | 0 | 0.0 | 0.0 | 0.08 | 0.28 | 0.25 | 93 | 1008.2 |
| 20260507103009 | 47 | 331 | 0.0 | 0.0 | 0.07 | 0.27 | 0.24 | 93 | 1007.6 |
| 20260507103003 | 48 | 0 | 0.0 | 0.0 | 0.07 | 0.27 | 0.24 | 93 | 1008.6 |
| 20260507102503 | 48 | 0 | 0.0 | 0.0 | 0.05 | 0.24 | 0.21 | 93 | 1008.6 |
| 20260507102003 | 48 | 0 | 0.0 | 0.0 | 0.04 | 0.23 | 0.20 | 93 | 1008.8 |
| 20260507101506 | 48 | 331 | 0.0 | 0.0 | 0.04 | 0.23 | 0.20 | 93 | 1007.9 |
| 20260507101503 | 48 | 0 | 0.0 | 0.0 | 0.04 | 0.23 | 0.20 | 93 | 1008.9 |
| 20260507101003 | 48 | 0 | 0.0 | 0.0 | 0.04 | 0.23 | 0.20 | 93 | 1008.6 |
| 20260507100503 | 48 | 0 | 0.0 | 0.0 | 0.03 | 0.22 | 0.19 | 93 | 1008.6 |
| 20260507100021 | 48 | 331 | 0.0 | 0.0 | 0.03 | 0.22 | 0.19 | 93 | 1007.5 |
| 20260507100003 | 48 | 0 | 0.0 | 0.0 | 0.03 | 0.22 | 0.19 | 93 | 1008.4 |
| 20260507095524 | 48 | 0 | 0.0 | 0.0 | 0.03 | 0.21 | 0.18 | 93 | 1008.5 |
| 20260507095003 | 48 | 0 | 0.0 | 0.0 | 0.03 | 0.21 | 0.18 | 92 | 1008.7 |
| 20260507094518 | 48 | 331 | 0.0 | 0.0 | 0.03 | 0.21 | 0.18 | 92 | 1007.2 |
| 20260507094503 | 48 | 0 | 0.0 | 0.0 | 0.03 | 0.21 | 0.18 | 92 | 1008.2 |
| 20260507094003 | 48 | 0 | 0.0 | 0.0 | 0.03 | 0.20 | 0.17 | 92 | 1008.2 |
| 20260507093524 | 49 | 0 | 0.0 | 0.0 | 0.03 | 0.20 | 0.17 | 92 | 1008.2 |
| 20260507093011 | 49 | 331 | 0.0 | 0.0 | 0.04 | 0.20 | 0.17 | 92 | 1007.3 |
| 20260507093003 | 49 | 0 | 0.0 | 0.0 | 0.04 | 0.20 | 0.17 | 92 | 1008.3 |
| 20260507092503 | 49 | 0 | 0.0 | 0.0 | 0.03 | 0.19 | 0.16 | 92 | 1008.2 |
| 20260507092003 | 49 | 0 | 0.0 | 0.0 | 0.04 | 0.19 | 0.16 | 92 | 1008.1 |
| 20260507091605 | 49 | 331 | 0.0 | 0.0 | 0.04 | 0.19 | 0.16 | 92 | 1007.1 |
| 20260507091503 | 49 | 0 | 0.0 | 0.0 | 0.04 | 0.19 | 0.16 | 92 | 1008.0 |
| 20260507091003 | 50 | 0 | 0.0 | 0.0 | 0.06 | 0.19 | 0.16 | 92 | 1008.0 |
| 20260507090503 | 50 | 0 | 0.0 | 0.0 | 0.07 | 0.19 | 0.16 | 92 | 1008.1 |
| 20260507090008 | 50 | 335 | 0.0 | 0.0 | 0.07 | 0.19 | 0.16 | 92 | 1006.7 |
| 20260507090004 | 50 | 335 | 0.0 | 2.0 | 0.07 | 0.19 | 0.16 | 92 | 1007.7 |
| 20260507085503 | 50 | 335 | 0.0 | 2.0 | 0.07 | 0.18 | 0.15 | 92 | 1007.7 |
| 20260507085003 | 51 | 0 | 0.0 | 0.0 | 0.08 | 0.18 | 0.15 | 92 | 1007.9 |
| 20260507084509 | 51 | 226 | 0.0 | 0.0 | 0.09 | 0.18 | 0.15 | 92 | 1007.0 |
| 20260507084503 | 51 | 0 | 0.0 | 0.0 | 0.09 | 0.18 | 0.15 | 92 | 1008.0 |
| 20260507084003 | 51 | 0 | 0.0 | 0.0 | 0.11 | 0.17 | 0.14 | 92 | 1008.0 |
| 20260507083503 | 52 | 0 | 0.0 | 1.0 | 0.13 | 0.17 | 0.14 | 92 | 1007.9 |
| 20260507083024 | 52 | 0 | 0.0 | 1.0 | 0.13 | 0.16 | 0.13 | 92 | 1008.1 |
| 20260507083013 | 51 | 226 | 0.0 | 1.0 | 0.13 | 0.16 | 0.13 | 92 | 1007.1 |
| 20260507082503 | 52 | 226 | 0.0 | 1.0 | 0.13 | 0.16 | 0.13 | 92 | 1007.9 |
| 20260507082003 | 52 | 226 | 0.0 | 1.0 | 0.12 | 0.15 | 0.12 | 92 | 1007.7 |
| 20260507081520 | 52 | 225 | 0.0 | 0.0 | 0.12 | 0.15 | 0.12 | 93 | 1006.6 |
| 20260507081503 | 52 | 0 | 0.0 | 0.0 | 0.12 | 0.15 | 0.12 | 93 | 1007.6 |
| 20260507081003 | 53 | 0 | 0.0 | 0.0 | 0.10 | 0.13 | 0.10 | 92 | 1007.8 |
| 20260507080524 | 53 | 0 | 0.0 | 0.0 | 0.09 | 0.12 | 0.09 | 92 | 1008.0 |
| 20260507080015 | 52 | 225 | 0.0 | 0.0 | 0.09 | 0.12 | 0.09 | 92 | 1007.1 |
| 20260507080003 | 53 | 0 | 0.0 | 0.0 | 0.09 | 0.12 | 0.09 | 92 | 1008.1 |
| 20260507075503 | 53 | 0 | 0.0 | 0.0 | 0.08 | 0.11 | 0.08 | 93 | 1008.0 |
| 20260507075003 | 53 | 0 | 0.0 | 0.0 | 0.07 | 0.10 | 0.07 | 93 | 1007.7 |
| 20260507074507 | 53 | 225 | 0.0 | 2.0 | 0.06 | 0.09 | 0.06 | 93 | 1006.9 |
| 20260507074503 | 54 | 225 | 0.0 | 2.0 | 0.06 | 0.09 | 0.06 | 93 | 1007.9 |
| 20260507074024 | 54 | 225 | 0.0 | 2.0 | 0.03 | 0.06 | 0.03 | 93 | 1007.9 |
| 20260507073524 | 54 | 0 | 0.0 | 2.0 | 0.01 | 0.04 | 0.01 | 93 | 1007.9 |
| 20260507073024 | 54 | 0 | 0.0 | 0.0 | 0.00 | 0.03 | 0.00 | 93 | 1007.7 |
| 20260507073013 | 54 | 224 | 0.0 | 0.0 | 0.00 | 0.03 | 0.00 | 93 | 1006.5 |
| 20260507072503 | 54 | 0 | 0.0 | 0.0 | 0.00 | 0.03 | 0.00 | 93 | 1006.9 |
| 20260507072003 | 55 | 0 | 0.0 | 0.0 | 0.00 | 0.03 | 0.00 | 94 | 1006.7 |
| 20260507071605 | 54 | 225 | 0.0 | 0.0 | 0.00 | 0.03 | 0.00 | 94 | 1005.8 |
| 20260507071503 | 55 | 0 | 0.0 | 0.0 | 0.00 | 0.03 | 0.00 | 94 | 1006.8 |
| 20260507071003 | 55 | 0 | 0.0 | 0.0 | 0.00 | 0.03 | 0.00 | 94 | 1006.6 |
| 20260507070524 | 55 | 0 | 0.0 | 0.0 | 0.00 | 0.03 | 0.00 | 94 | 1006.8 |
| 20260507070012 | 55 | 225 | 0.0 | 0.0 | 0.00 | 0.03 | 0.00 | 94 | 1005.7 |
| 20260507070004 | 55 | 0 | 0.0 | 0.0 | 0.00 | 0.03 | 0.00 | 94 | 1006.7 |
| 20260507065503 | 56 | 0 | 0.0 | 0.0 | 0.00 | 0.03 | 0.00 | 95 | 1006.8 |
| 20260507065003 | 56 | 225 | 0.0 | 1.0 | 0.00 | 0.03 | 0.00 | 94 | 1006.8 |
| 20260507064524 | 56 | 225 | 0.0 | 1.0 | 0.00 | 0.03 | 0.00 | 95 | 1006.8 |
| 20260507064509 | 56 | 225 | 0.0 | 1.0 | 0.00 | 0.03 | 0.00 | 95 | 1005.8 |
| 20260507064003 | 56 | 0 | 0.0 | 0.0 | 0.00 | 0.03 | 0.00 | 95 | 1006.8 |
| 20260507063503 | 56 | 0 | 0.0 | 0.0 | 0.00 | 0.03 | 0.00 | 95 | 1006.9 |
| 20260507063024 | 56 | 218 | 0.0 | 0.0 | 0.00 | 0.03 | 0.00 | 95 | 1005.9 |
| 20260507063003 | 56 | 0 | 0.0 | 0.0 | 0.00 | 0.03 | 0.00 | 95 | 1006.9 |
| 20260507062503 | 57 | 0 | 0.0 | 0.0 | 0.00 | 0.03 | 0.00 | 95 | 1006.9 |
| 20260507062003 | 57 | 0 | 0.0 | 0.0 | 0.00 | 0.03 | 0.00 | 95 | 1006.7 |
| 20260507061524 | 57 | 0 | 0.0 | 0.0 | 0.00 | 0.03 | 0.00 | 95 | 1006.8 |
| 20260507061510 | 57 | 218 | 0.0 | 0.0 | 0.00 | 0.03 | 0.00 | 95 | 1005.8 |
| 20260507061003 | 57 | 0 | 0.0 | 0.0 | 0.00 | 0.03 | 0.00 | 95 | 1007.0 |
| 20260507060503 | 57 | 0 | 0.0 | 0.0 | 0.00 | 0.03 | 0.00 | 95 | 1006.9 |
| 20260507060016 | 57 | 215 | 0.0 | 0.0 | 0.00 | 0.03 | 0.00 | 95 | 1006.0 |
| 20260507060003 | 57 | 0 | 0.0 | 0.0 | 0.00 | 0.03 | 0.00 | 95 | 1007.1 |
| 20260507055503 | 58 | 0 | 0.0 | 0.0 | 0.00 | 0.03 | 0.00 | 95 | 1007.2 |
| 20260507055024 | 58 | 0 | 0.0 | 0.0 | 0.00 | 0.03 | 0.00 | 95 | 1007.4 |
| 20260507054518 | 57 | 215 | 0.0 | 0.0 | 0.00 | 0.03 | 0.00 | 95 | 1006.3 |
| 20260507054503 | 58 | 0 | 0.0 | 0.0 | 0.00 | 0.03 | 0.00 | 95 | 1007.3 |
| 20260507054003 | 58 | 0 | 0.0 | 0.0 | 0.00 | 0.03 | 0.00 | 95 | 1007.1 |
| 20260507053503 | 58 | 0 | 0.0 | 0.0 | 0.00 | 0.03 | 0.00 | 95 | 1007.2 |
| 20260507053021 | 58 | 215 | 0.0 | 0.0 | 0.00 | 0.03 | 0.00 | 95 | 1006.3 |
| 20260507053003 | 58 | 0 | 0.0 | 0.0 | 0.00 | 0.03 | 0.00 | 95 | 1007.3 |
| 20260507052503 | 58 | 0 | 0.0 | 0.0 | 0.00 | 0.03 | 0.00 | 95 | 1007.3 |
| 20260507052003 | 58 | 0 | 0.0 | 0.0 | 0.00 | 0.03 | 0.00 | 95 | 1007.5 |
| 20260507051515 | 58 | 215 | 0.0 | 0.0 | 0.00 | 0.03 | 0.00 | 95 | 1006.2 |
| 20260507051503 | 58 | 0 | 0.0 | 0.0 | 0.00 | 0.03 | 0.00 | 95 | 1007.3 |
| 20260507051024 | 58 | 0 | 0.0 | 0.0 | 0.00 | 0.03 | 0.00 | 95 | 1007.3 |
| 20260507050503 | 58 | 0 | 0.0 | 0.0 | 0.00 | 0.03 | 0.00 | 96 | 1007.4 |
| 20260507050010 | 58 | 215 | 0.0 | 0.0 | 0.00 | 0.03 | 0.00 | 95 | 1006.3 |
| 20260507050003 | 58 | 0 | 0.0 | 0.0 | 0.00 | 0.03 | 0.00 | 95 | 1007.4 |
| 20260507045503 | 58 | 0 | 0.0 | 0.0 | 0.00 | 0.03 | 0.00 | 95 | 1007.4 |
| 20260507045003 | 58 | 0 | 0.0 | 0.0 | 0.00 | 0.03 | 0.00 | 96 | 1007.3 |
| 20260507044605 | 58 | 215 | 0.0 | 0.0 | 0.00 | 0.03 | 0.00 | 96 | 1006.3 |
| 20260507044524 | 58 | 0 | 0.0 | 0.0 | 0.00 | 0.03 | 0.00 | 96 | 1007.3 |
| 20260507044003 | 58 | 0 | 0.0 | 0.0 | 0.00 | 0.03 | 0.00 | 95 | 1007.2 |
| 20260507043503 | 58 | 0 | 0.0 | 0.0 | 0.00 | 0.03 | 0.00 | 96 | 1007.2 |
| 20260507043016 | 58 | 215 | 0.0 | 0.0 | 0.00 | 0.03 | 0.00 | 95 | 1006.2 |
| 20260507043003 | 58 | 0 | 0.0 | 0.0 | 0.00 | 0.03 | 0.00 | 96 | 1007.3 |
| 20260507042503 | 58 | 0 | 0.0 | 0.0 | 0.00 | 0.03 | 0.00 | 96 | 1007.1 |
| 20260507042003 | 58 | 0 | 0.0 | 0.0 | 0.00 | 0.03 | 0.00 | 96 | 1007.1 |
| 20260507041522 | 58 | 215 | 0.0 | 0.0 | 0.00 | 0.03 | 0.00 | 96 | 1006.2 |
| 20260507041503 | 58 | 0 | 0.0 | 0.0 | 0.00 | 0.03 | 0.00 | 96 | 1007.3 |
| 20260507041003 | 58 | 0 | 0.0 | 0.0 | 0.00 | 0.03 | 0.00 | 96 | 1007.4 |
| 20260507040503 | 58 | 0 | 0.0 | 0.0 | 0.00 | 0.03 | 0.00 | 96 | 1007.4 |
| 20260507040024 | 58 | 0 | 0.0 | 0.0 | 0.00 | 0.03 | 0.00 | 95 | 1007.2 |
| 20260507040015 | 57 | 215 | 0.0 | 0.0 | 0.00 | 0.03 | 0.00 | 95 | 1006.2 |
| 20260507035503 | 58 | 0 | 0.0 | 0.0 | 0.00 | 0.03 | 0.03 | 95 | 1007.3 |
| 20260507035003 | 58 | 0 | 0.0 | 0.0 | 0.00 | 0.03 | 0.03 | 95 | 1007.4 |
| 20260507034516 | 57 | 215 | 0.0 | 0.0 | 0.00 | 0.03 | 0.03 | 95 | 1006.3 |
| 20260507034503 | 58 | 0 | 0.0 | 3.0 | 0.00 | 0.03 | 0.03 | 95 | 1007.3 |
| 20260507034003 | 58 | 0 | 0.0 | 3.0 | 0.00 | 0.03 | 0.03 | 95 | 1007.4 |
| 20260507033503 | 57 | 234 | 0.0 | 5.0 | 0.00 | 0.03 | 0.03 | 95 | 1007.5 |
| 20260507033005 | 57 | 238 | 0.0 | 5.0 | 0.00 | 0.03 | 0.03 | 95 | 1006.4 |
| 20260507033003 | 57 | 234 | 0.0 | 5.0 | 0.00 | 0.03 | 0.03 | 95 | 1007.5 |
| 20260507032524 | 57 | 220 | 0.0 | 3.0 | 0.00 | 0.03 | 0.03 | 95 | 1007.3 |
| 20260507032003 | 57 | 220 | 0.0 | 3.0 | 0.00 | 0.03 | 0.03 | 95 | 1007.2 |
| 20260507031524 | 57 | 217 | 0.0 | 3.0 | 0.00 | 0.03 | 0.03 | 95 | 1007.2 |
| 20260507031003 | 57 | 217 | 0.0 | 3.0 | 0.00 | 0.03 | 0.03 | 95 | 1007.2 |
| 20260507030524 | 57 | 214 | 0.0 | 3.0 | 0.00 | 0.03 | 0.03 | 95 | 1007.1 |
| 20260507030013 | 57 | 214 | 0.0 | 3.0 | 0.00 | 0.03 | 0.03 | 95 | 1006.0 |
| 20260507030003 | 57 | 214 | 0.0 | 3.0 | 0.00 | 0.03 | 0.03 | 95 | 1007.0 |
| 20260507025503 | 57 | 211 | 0.0 | 3.0 | 0.00 | 0.03 | 0.03 | 95 | 1007.1 |
| 20260507025003 | 57 | 211 | 0.0 | 3.0 | 0.00 | 0.03 | 0.03 | 95 | 1007.0 |
| 20260507024509 | 56 | 212 | 0.0 | 2.0 | 0.00 | 0.03 | 0.03 | 95 | 1005.9 |
| 20260507024503 | 57 | 211 | 0.0 | 2.0 | 0.00 | 0.03 | 0.03 | 95 | 1006.9 |
| 20260507024024 | 57 | 211 | 0.0 | 2.0 | 0.00 | 0.03 | 0.03 | 95 | 1007.0 |
| 20260507023503 | 57 | 0 | 0.0 | 0.0 | 0.00 | 0.03 | 0.03 | 95 | 1007.1 |
| 20260507023012 | 56 | 211 | 0.0 | 0.0 | 0.00 | 0.03 | 0.03 | 95 | 1006.1 |
| 20260507023003 | 57 | 0 | 0.0 | 0.0 | 0.00 | 0.03 | 0.03 | 95 | 1007.2 |
| 20260507022503 | 57 | 0 | 0.0 | 0.0 | 0.00 | 0.03 | 0.03 | 95 | 1007.2 |
| 20260507022003 | 57 | 200 | 0.0 | 3.0 | 0.00 | 0.03 | 0.03 | 95 | 1007.1 |
| 20260507021506 | 56 | 202 | 0.0 | 3.0 | 0.00 | 0.03 | 0.03 | 95 | 1006.0 |
| 20260507021503 | 57 | 200 | 0.0 | 3.0 | 0.00 | 0.03 | 0.03 | 95 | 1007.0 |
| 20260507021024 | 57 | 198 | 0.0 | 4.0 | 0.00 | 0.03 | 0.03 | 95 | 1006.9 |
| 20260507020503 | 57 | 198 | 1.0 | 4.0 | 0.00 | 0.03 | 0.03 | 95 | 1007.1 |
| 20260507020013 | 56 | 198 | 0.0 | 4.0 | 0.00 | 0.03 | 0.03 | 95 | 1006.1 |
| 20260507020003 | 57 | 198 | 0.0 | 4.0 | 0.00 | 0.03 | 0.03 | 95 | 1007.1 |
| 20260507015524 | 57 | 0 | 0.0 | 0.0 | 0.00 | 0.03 | 0.03 | 95 | 1007.1 |
| 20260507015003 | 57 | 197 | 0.0 | 4.0 | 0.00 | 0.03 | 0.03 | 95 | 1007.2 |
| 20260507014515 | 56 | 199 | 0.0 | 5.0 | 0.00 | 0.03 | 0.03 | 95 | 1006.2 |
| 20260507014503 | 57 | 193 | 1.0 | 5.0 | 0.00 | 0.03 | 0.03 | 95 | 1007.3 |
| 20260507014024 | 57 | 187 | 0.0 | 5.0 | 0.00 | 0.03 | 0.03 | 95 | 1007.2 |
| 20260507013524 | 57 | 185 | 0.0 | 4.0 | 0.00 | 0.03 | 0.03 | 95 | 1007.3 |
| 20260507013020 | 56 | 185 | 0.0 | 3.0 | 0.00 | 0.03 | 0.03 | 95 | 1006.5 |
| 20260507013003 | 57 | 185 | 0.0 | 3.0 | 0.00 | 0.03 | 0.03 | 95 | 1007.6 |
| 20260507012503 | 57 | 0 | 0.0 | 0.0 | 0.00 | 0.03 | 0.03 | 95 | 1007.7 |
| 20260507012003 | 57 | 0 | 0.0 | 0.0 | 0.00 | 0.03 | 0.03 | 95 | 1007.6 |
| 20260507011516 | 56 | 217 | 0.0 | 2.0 | 0.00 | 0.03 | 0.03 | 95 | 1006.6 |
| 20260507011503 | 56 | 217 | 0.0 | 3.0 | 0.00 | 0.03 | 0.03 | 95 | 1007.6 |
| 20260507011003 | 56 | 217 | 0.0 | 3.0 | 0.00 | 0.03 | 0.03 | 95 | 1007.6 |
| 20260507010503 | 56 | 220 | 0.0 | 2.0 | 0.00 | 0.03 | 0.03 | 95 | 1007.6 |
| 20260507010005 | 56 | 221 | 0.0 | 3.0 | 0.01 | 0.03 | 0.03 | 95 | 1006.6 |
| 20260507010003 | 56 | 211 | 0.0 | 3.0 | 0.01 | 0.03 | 0.03 | 95 | 1007.6 |
| 20260507005524 | 56 | 206 | 0.0 | 4.0 | 0.01 | 0.03 | 0.03 | 95 | 1007.5 |
| 20260507005003 | 56 | 205 | 0.0 | 4.0 | 0.01 | 0.03 | 0.03 | 95 | 1007.6 |
| 20260507004515 | 56 | 219 | 0.0 | 4.0 | 0.01 | 0.03 | 0.03 | 95 | 1006.6 |
| 20260507004503 | 56 | 216 | 0.0 | 4.0 | 0.01 | 0.03 | 0.03 | 95 | 1007.6 |
| 20260507004025 | 56 | 216 | 0.0 | 4.0 | 0.01 | 0.03 | 0.03 | 94 | 1007.5 |
| 20260507003524 | 56 | 249 | 0.0 | 3.0 | 0.01 | 0.03 | 0.03 | 94 | 1007.6 |
| 20260507003009 | 56 | 290 | 0.0 | 3.0 | 0.01 | 0.03 | 0.03 | 94 | 1006.4 |
| 20260507003003 | 56 | 249 | 0.0 | 3.0 | 0.01 | 0.03 | 0.03 | 94 | 1007.4 |
| 20260507002503 | 56 | 189 | 1.0 | 6.0 | 0.01 | 0.03 | 0.03 | 94 | 1007.4 |
| 20260507002003 | 56 | 193 | 1.0 | 6.0 | 0.01 | 0.03 | 0.03 | 94 | 1007.4 |
| 20260507001524 | 56 | 197 | 1.0 | 6.0 | 0.01 | 0.03 | 0.03 | 94 | 1007.5 |
| 20260507001505 | 56 | 193 | 2.0 | 6.0 | 0.01 | 0.03 | 0.03 | 94 | 1006.5 |
| 20260507001024 | 56 | 217 | 0.0 | 3.0 | 0.01 | 0.03 | 0.03 | 94 | 1007.4 |
| 20260507000503 | 56 | 220 | 0.0 | 3.0 | 0.01 | 0.03 | 0.03 | 94 | 1007.3 |
| 20260507000024 | 56 | 223 | 0.0 | 6.0 | 0.00 | 0.02 | 0.02 | 94 | 1006.3 |
| 20260507000003 | 56 | 196 | 1.0 | 6.0 | 0.00 | 0.02 | 0.02 | 94 | 1007.4 |
| 20260506235503 | 56 | 193 | 1.0 | 6.0 | 0.00 | 0.02 | 0.02 | 94 | 1007.3 |
| 20260506235003 | 56 | 217 | 0.0 | 1.0 | 0.00 | 0.02 | 0.02 | 94 | 1007.3 |
| 20260506234516 | 56 | 219 | 0.0 | 3.0 | 0.00 | 0.02 | 0.02 | 94 | 1006.2 |
| 20260506234503 | 56 | 220 | 0.0 | 3.0 | 0.00 | 0.02 | 0.02 | 94 | 1007.2 |
| 20260506234003 | 56 | 210 | 0.0 | 3.0 | 0.00 | 0.02 | 0.02 | 94 | 1007.2 |
| 20260506233503 | 56 | 200 | 0.0 | 2.0 | 0.00 | 0.02 | 0.02 | 94 | 1007.2 |
| 20260506233105 | 56 | 199 | 0.0 | 3.0 | 0.00 | 0.02 | 0.02 | 93 | 1006.1 |
| 20260506233003 | 56 | 199 | 0.0 | 3.0 | 0.00 | 0.02 | 0.02 | 93 | 1007.2 |
| 20260506232503 | 56 | 199 | 0.0 | 3.0 | 0.00 | 0.02 | 0.02 | 93 | 1007.3 |
| 20260506232003 | 56 | 0 | 0.0 | 0.0 | 0.00 | 0.02 | 0.02 | 93 | 1007.3 |
| 20260506231528 | 56 | 198 | 0.0 | 6.0 | 0.00 | 0.02 | 0.02 | 93 | 1006.4 |
| 20260506231503 | 56 | 203 | 0.0 | 6.0 | 0.00 | 0.02 | 0.02 | 93 | 1007.4 |
| 20260506231003 | 57 | 202 | 0.0 | 6.0 | 0.01 | 0.02 | 0.02 | 93 | 1007.5 |
| 20260506230524 | 57 | 204 | 0.0 | 4.0 | 0.01 | 0.02 | 0.02 | 93 | 1007.7 |
| 20260506230008 | 56 | 206 | 0.0 | 4.0 | 0.01 | 0.02 | 0.02 | 93 | 1006.4 |
| 20260506230003 | 57 | 206 | 0.0 | 4.0 | 0.01 | 0.02 | 0.02 | 93 | 1007.5 |
| 20260506225524 | 57 | 206 | 0.0 | 3.0 | 0.01 | 0.02 | 0.02 | 93 | 1007.4 |
| 20260506225003 | 57 | 0 | 0.0 | 0.0 | 0.01 | 0.02 | 0.02 | 93 | 1007.5 |
| 20260506224608 | 57 | 221 | 0.0 | 0.0 | 0.01 | 0.02 | 0.02 | 93 | 1006.3 |
| 20260506224524 | 57 | 213 | 0.0 | 3.0 | 0.01 | 0.02 | 0.02 | 93 | 1007.4 |
| 20260506224003 | 57 | 213 | 0.0 | 3.0 | 0.01 | 0.02 | 0.02 | 93 | 1007.3 |
| 20260506223503 | 57 | 0 | 0.0 | 2.0 | 0.01 | 0.02 | 0.02 | 93 | 1007.3 |
| 20260506223106 | 57 | 238 | 0.0 | 2.0 | 0.01 | 0.02 | 0.02 | 92 | 1006.3 |
| 20260506223003 | 57 | 0 | 0.0 | 2.0 | 0.01 | 0.02 | 0.02 | 92 | 1007.4 |
| 20260506222503 | 58 | 197 | 0.0 | 4.0 | 0.01 | 0.02 | 0.02 | 92 | 1007.5 |
| 20260506222003 | 58 | 196 | 0.0 | 4.0 | 0.01 | 0.02 | 0.02 | 92 | 1007.6 |
| 20260506221514 | 57 | 195 | 0.0 | 2.0 | 0.01 | 0.02 | 0.02 | 92 | 1006.6 |
| 20260506221503 | 58 | 194 | 0.0 | 2.0 | 0.01 | 0.02 | 0.02 | 92 | 1007.7 |
| 20260506221003 | 58 | 193 | 0.0 | 2.0 | 0.00 | 0.01 | 0.01 | 92 | 1007.7 |
| 20260506220524 | 58 | 196 | 1.0 | 5.0 | 0.00 | 0.01 | 0.01 | 92 | 1007.7 |
| 20260506220008 | 58 | 190 | 0.0 | 5.0 | 0.00 | 0.01 | 0.01 | 92 | 1006.8 |
| 20260506220003 | 58 | 196 | 1.0 | 5.0 | 0.00 | 0.01 | 0.01 | 92 | 1007.8 |
| 20260506215503 | 58 | 198 | 0.0 | 3.0 | 0.00 | 0.01 | 0.01 | 91 | 1007.8 |
| 20260506215003 | 59 | 197 | 0.0 | 6.0 | 0.01 | 0.01 | 0.01 | 91 | 1007.8 |
| 20260506214517 | 58 | 198 | 1.0 | 6.0 | 0.01 | 0.01 | 0.01 | 91 | 1006.8 |
| 20260506214503 | 59 | 195 | 0.0 | 6.0 | 0.01 | 0.01 | 0.01 | 91 | 1007.9 |
| 20260506214024 | 59 | 207 | 0.0 | 5.0 | 0.01 | 0.01 | 0.01 | 91 | 1007.9 |
| 20260506213503 | 59 | 220 | 0.0 | 4.0 | 0.01 | 0.01 | 0.01 | 91 | 1008.0 |
| 20260506213024 | 59 | 208 | 0.0 | 5.0 | 0.01 | 0.01 | 0.01 | 91 | 1008.0 |
| 20260506213010 | 58 | 229 | 0.0 | 5.0 | 0.01 | 0.01 | 0.01 | 91 | 1006.9 |
| 20260506212503 | 59 | 203 | 0.0 | 5.0 | 0.01 | 0.01 | 0.01 | 90 | 1008.0 |
| 20260506212003 | 59 | 205 | 0.0 | 5.0 | 0.01 | 0.01 | 0.01 | 90 | 1008.0 |
| 20260506211524 | 59 | 216 | 0.0 | 3.0 | 0.01 | 0.01 | 0.01 | 90 | 1008.0 |
| 20260506211510 | 59 | 207 | 0.0 | 3.0 | 0.01 | 0.01 | 0.01 | 90 | 1007.0 |
| 20260506211003 | 60 | 227 | 0.0 | 1.0 | 0.01 | 0.01 | 0.01 | 90 | 1008.1 |
| 20260506210503 | 60 | 200 | 0.0 | 4.0 | 0.01 | 0.01 | 0.01 | 90 | 1008.1 |
| 20260506210024 | 60 | 199 | 0.0 | 4.0 | 0.01 | 0.01 | 0.01 | 89 | 1008.0 |
| 20260506210018 | 59 | 205 | 0.0 | 4.0 | 0.01 | 0.01 | 0.01 | 89 | 1007.0 |
| 20260506205503 | 60 | 202 | 0.0 | 3.0 | 0.01 | 0.01 | 0.01 | 89 | 1008.1 |
| 20260506205003 | 60 | 205 | 0.0 | 5.0 | 0.00 | 0.00 | 0.00 | 89 | 1008.2 |
| 20260506204512 | 60 | 196 | 0.0 | 5.0 | 0.00 | 0.00 | 0.00 | 88 | 1007.1 |
| 20260506204503 | 60 | 204 | 0.0 | 5.0 | 0.00 | 0.00 | 0.00 | 88 | 1008.2 |
| 20260506204003 | 60 | 205 | 1.0 | 7.0 | 0.00 | 0.00 | 0.00 | 88 | 1008.2 |
| 20260506203503 | 61 | 215 | 1.0 | 7.0 | 0.00 | 0.00 | 0.00 | 88 | 1008.4 |
| 20260506203106 | 60 | 202 | 0.0 | 4.0 | 0.00 | 0.00 | 0.00 | 87 | 1007.2 |
| 20260506203003 | 61 | 210 | 1.0 | 4.0 | 0.00 | 0.00 | 0.00 | 87 | 1008.3 |
| 20260506202503 | 61 | 197 | 1.0 | 7.0 | 0.00 | 0.00 | 0.00 | 87 | 1008.2 |
| 20260506202003 | 61 | 201 | 1.0 | 7.0 | 0.00 | 0.00 | 0.00 | 87 | 1008.2 |